Flag for Australia Weather past 2 weeks in Toowoomba, Queensland, Australia

Now
55 °F

Cool.


Feels Like: 53 °F
Forecast: 51 / 73 °F
Wind: 10 mph from East

Location: Oakey Aerodrome

Current Time: Oct 22, 2014 at 3:52:04 AM

Latest Report: Oct 22, 2014 at 3:00 AM


Visibility: N/A

Pressure: 30.23 "Hg

Humidity: 78%

Dew point: 49 °F

Location of ToowoombaLocation

Historic Weather in Toowoomba — Graph

°F

Toowoomba temperature yesterday

Maximum temperature yesterday: 76 °F (at 3:00 PM)
Minimum temperature yesterday: 62 °F (at 10:00 PM)
Average temperature yesterday: 67 °F

Past Weeks' High & Low Weather Summary

 TemperatureHumidityPressure
High91 °F (Oct 8, 3:00 PM)89% (Oct 14, 6:00 AM)30.32 "Hg (Oct 14, 6:00 AM)
Low38 °F (Oct 15, 4:00 AM)11% (Oct 17, 3:00 PM)29.78 "Hg (Oct 14, 3:00 AM)
Average66 °F55%30.06 "Hg
* Reported Oct 7 1:00 AM — Oct 22 1:00 AM, Toowoomba, Weather by CustomWeather, © 2014

Note: Actual official high and low records may vary slightly from our data, if they occured in-between our weather recording intervals... More about our weather records

Advertising

Toowoomba weather history for previous 24 hours

 ConditionsComfort  
Time TempWeatherWind HumidityBarometerVisibility
1:00 AM
Oct 22
57 °FCool.13 mph74%30.27 "HgN/A
12:00 AM59 °FCool.12 mph72%30.30 "HgN/A
10:00 PM
Oct 21
62 °FCool.17 mph66%30.31 "HgN/A
9:00 PM63 °FMild.17 mph63%30.30 "HgN/A
7:00 PM66 °FMild.15 mph58%30.26 "HgN/A
6:00 PM70 °FMild.18 mph52%30.24 "HgN/A
4:00 PM75 °FMild.14 mph42%30.21 "HgN/A
3:00 PM76 °FMild.14 mph42%30.21 "HgN/A
1:00 PM74 °FMild.13 mph47%30.26 "HgN/A
12:00 PM73 °FOvercast.15 mph51%30.29 "HgN/A
10:00 AM70 °FMild.18 mph57%30.32 "HgN/A
9:00 AM71 °FPartly sunny.18 mph58%30.31 "HgN/A
7:00 AM64 °FMild.16 mph74%30.30 "HgN/A
6:00 AM63 °FOvercast.10 mph76%30.27 "HgN/A
4:00 AM63 °FMild.12 mph75%30.25 "HgN/A
3:00 AM62 °FOvercast.14 mph75%30.24 "HgN/A
Weather by CustomWeather, © 2014

See weather overviewHow to use our weather pages